Weather in Sant Lluís

Spain     39°50′59″N   4°15′34″E
temp.,
°C
wind,
m/s
gust,
m/s
humid.,
%
clouds,
%
prec.,
mm/h
press.,
hPa
HPBL,
m
24 september, fri
fri2423:00+24ene911840 0.0 1016639
02:00+25e101283100 0.0 1015753
05:00+24ene101382100 0.0 1014780
08:00+24e91183100 0.0 1015750
11:00+24e101285100 0.0 1015656
14:00+25ese8988100 0.1 1014665
17:00+25ese6684100 0.1 1014406
20:00+25e5685100 0.1 1014392
25 september, sat
sat2523:00+25e569073 0.0 1015476
02:00+25e3385100 0.1 1015224
05:00+25ene4584100 0.0 1013538
08:00+25e4487100 0.0 1014426
11:00+24se3389100 0.0 1015341
14:00+24sw1290100 0.0 1015164
17:00+26w448285 0.0 1015349
20:00+25w4485100 0.0 1016191
26 september, sun
sun2623:00+25w448439 0.0 1017137
02:00+25wnw4584100 0.0 1017263
05:00+25wsw2388100 0.0 1016217
08:00+24w4485100 0.0 1018400
11:00+25wnw33815 0.0 1019332
14:00+25w44770 0.0 1019309
17:00+25wnw34695 0.0 1018168
20:00+25nw226999 0.0 101868
27 september, mon
mon2723:00+25nnw01705 0.0 101919
02:00+25nw116511 0.0 101939
05:00+24wnw226141 0.0 1018129
08:00+24nnw336349 0.0 1019211
11:00+24nw336450 0.0 1021318
14:00+25wnw2362100 0.0 1021221
17:00+25ne226243 0.0 1020224
20:00+24nne3367100 0.0 1021235
28 september, tue
tue2823:00+24nw226735 0.0 1022197
02:00+24nnw34676 0.0 1022211
05:00+23n577091 0.0 1020445
08:00+23nne557299 0.0 1020383
11:00+24n4467100 0.0 1021420
14:00+25nne4466100 0.0 1021239
17:00+25nne44658 0.0 1020261
20:00+24nne44676 0.0 1020383